Terminal Aerodrome Forecast
Issued by NWS

Home | Current Version | Previous Version | Graphics & Text | Print | Product List | Glossary On
Versions: 1 2 3 4 5 6 7 8 9 10 11 12 13 14
000
FTUS43 KBIS 290500
TAFMOT
TAF
KMOT 290522Z 2906/3006 20003KT P6SM SCT045 BKN060
     FM291700 35006KT P6SM SCT050
     FM300300 03004KT P6SM BKN045=

USA.gov is the U.S. government's official web portal to all federal, state and local government web resources and services.